Location: ActonStarParty
(42.4766°N, 71.4538°W)
Time: 23:42:24
(UTC-05:00)

Daily predictions for brighter satellites

Satellite Brightness Start Highest point End
(mag) Time Altitude Azimuth Time Altitude Azimuth Time Altitude Azimuth
Cosmos 2322 4.1 17:02:15 10° SSW 17:07:53 68° WNW 17:13:36 10° NNE
Cosmos 1937 Rocket 3.6 17:03:53 10° NNW 17:09:05 89° WSW 17:14:18 10° SSE
In-Cosmos 22 4.4 17:05:12 10° SSW 17:10:31 75° W 17:16:01 10° N
Cosmos 2263 Rocket 4.4 17:06:35 10° NW 17:11:30 31° WSW 17:16:23 10° SSW
OTV 4 1.8 17:11:30 10° WSW 17:14:14 33° S 17:16:57 10° ESE
Meteor 2-2 Rocket 4.4 17:08:58 10° N 17:14:27 51° ENE 17:19:55 10° SSE
SL-16 R/B 4.2 17:10:12 10° WSW 17:14:45 24° NW 17:19:20 10° N
SMAP 3.1 17:10:37 10° SSE 17:15:17 86° ENE 17:19:58 10° NNW
Cosmos 1766 Rocket 3.7 17:11:09 10° S 17:15:37 83° W 17:20:05 10° N
Cosmos 1844 Rocket 2.7 17:10:47 10° NNW 17:16:26 64° ENE 17:22:02 10° SE
Cosmos 2084 4.4 17:14:49 10° S 17:18:07 26° ESE 17:21:20 10° ENE
Lacrosse 5 3.3 17:15:43 10° W 17:20:05 28° NNW 17:24:28 10° NNE
Cosmos 44 Rocket 4.1 17:15:49 10° S 17:20:31 38° ESE 17:25:11 10° NE
Cosmos 2333 4.2 17:16:52 10° SSW 17:22:26 72° ESE 17:28:02 10° NNE
Abrixas rocket 4.3 17:21:17 10° W 17:24:14 29° SW 17:27:11 10° SSE
Meteor 1-28 Rocket 4.4 17:21:28 10° NE 17:24:24 22° E 17:27:19 10° SSE
COSMO-SKYMED 1 3.2 17:20:52 10° NNE 17:24:54 36° E 17:28:55 10° SSE
CZ-2C R/B 2.9 17:19:58 10° S 17:24:57 68° WSW 17:29:49 10° NNW
YAOGAN 1 2.7 17:22:32 10° S 17:26:51 82° WSW 17:31:13 10° NNW
Cosmos 2228 Rocket 3.0 17:25:50 10° N 17:30:16 80° E 17:34:41 10° S
Cosmos 2360 Rocket 3.4 17:25:41 10° SW 17:30:57 40° WNW 17:36:15 10° NNE
Cosmos 1980 4.3 17:26:57 10° S 17:32:05 36° ESE 17:37:14 10° NE
USA 116 4.3 17:35:01 10° N 17:38:10 45° WNW 17:41:10 10° SSW
SJ-6B 4.0 17:35:20 10° ESE 17:38:32 23° ENE 17:41:47 10° NNE
Cosmos 389 Rocket 4.3 17:39:34 10° NNW 17:42:55 36° W 17:46:11 10° SSW
Atlas Centaur 2 4.4 17:41:47 10° SW 17:44:03 13° SSW 17:46:07 10° S
Cosmos 2346 Rocket 4.5 17:37:54 10° S 17:44:09 78° E 17:50:24 10° N
Cosmos 2333 Rocket 2.3 17:38:48 10° S 17:44:16 55° ESE 17:49:47 10° NNE
Cosmos 2058 3.7 17:41:06 10° SSE 17:44:42 30° E 17:48:18 10° NNE
Cosmos 1763 Rocket 3.9 17:42:08 10° SSW 17:47:20 66° WNW 17:52:30 10° NNE
Meteor 2-10 4.2 17:48:34 10° N 17:53:26 44° ENE 17:58:21 10° SSE
Cosmos 1703 4.5 17:50:35 10° SE 17:53:33 21° E 17:53:46 21° E
Cosmos 372 Rocket 4.1 17:49:41 10° N 17:54:37 47° ENE 17:59:30 10° SE
SKYMED 3 4.5 17:50:41 10° NNE 17:55:02 79° ESE 17:59:23 10° S
METEOR-M 4.3 17:52:07 10° SE 17:57:13 47° ENE 18:02:21 10° N
Cosmos 2219 Rocket 2.2 17:52:15 10° SSW 17:57:54 90° ESE 18:03:34 10° NNE
Cosmos 1743 Rocket 4.2 17:54:06 10° SSW 17:58:30 59° W 18:02:57 10° N
Meteor 1-27 4.4 17:53:21 10° N 17:59:02 54° ENE 18:04:45 10° SSE
Cosmos 2278 Rocket 2.1 17:57:06 10° NNW 18:02:46 68° ENE 18:08:25 10° SSE
USA 215 3.2 18:00:35 10° SE 18:07:09 83° NE 18:13:44 10° NW
Cosmos 1340 Rocket 3.1 18:04:14 10° SSE 18:07:57 41° E 18:09:40 26° NE
Cosmos 540 Rocket 3.4 18:02:52 10° S 18:07:59 68° ESE 18:12:47 12° NNE
Cosmos 2151 2.8 18:05:58 10° S 18:10:10 84° E 18:14:24 10° N
Cosmos 1515 Rocket 4.4 18:05:53 10° NNW 18:10:15 53° W 18:14:34 10° S
SKYMED 2 3.9 18:08:45 10° N 18:13:05 66° WNW 18:17:22 10° SSW
Cosmos 1844 4.4 18:08:06 10° NNW 18:13:45 60° WSW 18:19:25 10° S
Abrixas 3.8 18:13:34 10° SSW 18:15:50 26° SSE 18:15:50 26° SSE
SL-14 R/B 3.3 18:12:55 10° S 18:16:50 81° W 18:20:49 10° N
Cosmos 1805 Rocket 3.8 18:13:39 10° SSE 18:17:52 45° E 18:19:55 27° NE
Cosmos 1626 3.7 18:16:16 10° SSE 18:17:51 21° SE 18:17:51 21° SE
Cosmos 1151 Rocket 3.5 18:15:43 10° NNW 18:19:56 61° W 18:24:09 10° S
Timation 1 Rocket 4.4 18:15:49 10° NNW 18:21:43 53° ENE 18:27:08 12° SE
Cosmos 1125 Rocket 3.8 18:19:15 10° NNW 18:24:26 67° WSW 18:29:33 10° S
NOAA 12 4.0 18:19:21 10° SSE 18:24:35 89° E 18:29:52 10° NNW
COSMOS 2428 4.2 18:20:10 10° WSW 18:25:18 33° NW 18:30:27 10° N
Cosmos 2237 Rocket 2.2 18:22:52 10° SSW 18:28:30 85° WNW 18:33:01 17° NNE
ALOS 2.4 18:26:47 10° SE 18:31:15 49° ENE 18:35:46 10° N
SL-16 R/B 2.4 18:27:48 10° S 18:33:09 45° ESE 18:34:21 40° ENE
Cosmos 44 3.4 18:28:51 10° SW 18:34:08 82° WNW 18:36:41 30° NNE
Cosmos 1300 4.1 18:30:47 10° NNW 18:34:23 39° W 18:37:58 10° SSW
Spot 2 Rocket 3.5 18:30:14 10° SE 18:35:07 51° ENE 18:40:00 10° N
Cosmos 1726 3.8 18:33:00 10° NNW 18:36:28 35° W 18:39:55 10° SSW
Transit 2A Rocket 4.4 18:37:09 10° NNW 18:41:29 83° WSW 18:43:20 34° SSE
Cosmos 2297 3.6 18:36:03 10° NNW 18:41:45 66° ENE 18:44:55 27° SE
Sich 1 3.6 18:37:39 10° S 18:40:52 41° SE 18:40:52 41° SE
Cosmos 1538 Rocket 4.2 18:37:14 10° S 18:42:15 47° ESE 18:42:15 47° ESE
NOSS 0 Rocket 4.4 18:37:24 10° SW 18:43:32 60° WNW 18:48:47 15° NNE
Lacrosse 5 rocket 1.1 18:40:05 10° NW 18:43:37 72° N 18:43:37 72° N
BREEZE-M DEB (TANK) 3.4 18:41:37 10° WSW 18:43:03 35° WSW 18:43:03 35° WSW
SL-19 R/B 4.2 18:38:52 10° SSE 18:44:51 82° ENE 18:50:32 10° NNW
Cosmos 1633 Rocket 4.3 18:40:45 10° SSE 18:42:54 27° SSE 18:42:54 27° SSE
OTV 4 2.9 18:47:40 10° WSW 18:49:25 19° SSW 18:49:25 19° SSW
CENTAUR R/B 4.1 18:47:53 10° W 18:53:25 30° NW 18:58:26 14° NNE
Resurs 01 Rocket 1.7 18:54:23 64° N 18:54:23 64° N 18:58:13 10° N
CZ-3A R/B 2.7 18:58:56 10° NW 19:03:35 88° SW 19:04:51 53° SE
Lacrosse 5 3.9 19:01:33 10° NW 19:04:35 16° N 19:04:47 16° N
Aureole 2 Rocket 3.7 19:01:08 10° SW 19:04:38 43° WNW 19:04:38 43° WNW
Cosmos 1707 Rocket 3.9 19:01:17 10° NNW 19:05:34 63° W 19:09:51 10° S
FengYun 1-2 T 4.4 19:04:23 10° S 19:09:57 72° WSW 19:15:30 10° NNW
Cosmos 1461 4.4 19:08:19 10° SSW 19:10:31 30° SSW 19:10:31 30° SSW
Cosmos 1666 Rocket 4.5 19:12:15 10° SSW 19:15:24 43° SW 19:15:24 43° SW
FENGYUN 3A 4.2 19:19:25 10° S 19:24:40 56° W 19:29:58 10° NNW
Cosmos 2333 Rocket 4.1 19:24:19 10° WSW 19:28:53 25° NW 19:32:21 15° N
SL-16 R/B 4.0 20:12:36 10° WSW 20:16:18 27° WNW 20:16:18 27° WNW
